Location: Eschertshofen
(49.3064°N, 11.5756°E)
Time: 12:48:37
(UTC+00:00)

Cosmos 1634 Rocket - Pass Details

Date: 18 September 2020
Orbit: 961 x 991 km, 82.9° (Epoch: 23 October)

Event Time Altitude Azimuth Distance (km) Brightness Sun altitude
Exits shadow 19:34:24 36° 153° (SSE) 1,479 4.5 -21.7°
Maximum altitude 19:36:47 58° 93° (E) 1,116 4.0 -22.1°
Drops below altitude 10° 19:42:51 10° 16° (NNE) 2,717 6.5 -22.9°
Sets 19:45:24 0° 13° (NNE) 3,671 7.3 -23.3°
